Location: Czu?�w
(50.1404°N, 18.9919°E)
Time: 11:09:17
(UTC+00:00)

Okean O Rocket - Pass Details

Date: 27 October 2020
Orbit: 622 x 645 km, 98.2° (Epoch: 24 November)

Event Time Altitude Azimuth Distance (km) Brightness Sun altitude
Rises 16:39:09 0° 186° (S) 2,909 5.2 -11.8°
Reaches altitude 10° 16:41:28 10° 195° (SSW) 2,004 4.4 -12.2°
Maximum altitude 16:45:31 36° 263° (W) 991 3.3 -12.8°
Drops below altitude 10° 16:49:34 10° 330° (NNW) 2,009 4.5 -13.5°
Sets 16:51:54 0° 339° (NNW) 2,920 5.2 -13.8°
